This is the latest recevied weather packets stored in our database for station/object KE2HEH. If no packets are shown the sender has not sent any weather packets the latest 10 day(s).
| Time | Temp. | Humidity | Pressure | Rain* | Wind** | Luminosity | Snow |
|---|---|---|---|---|---|---|---|
| 1778238162 | 10° C | 76% | 1013.3 hPa | 0 mm | - | 172 W/m² | - |
| 1778237862 | 10° C | 76% | 1013.4 hPa | 0 mm | - | 49 W/m² | - |
| 1778237559 | 9.44° C | 77% | 1013.2 hPa | 0 mm | - | 46 W/m² | - |
| 1778237256 | 9.44° C | 77% | 1013.2 hPa | 0 mm | - | 45 W/m² | - |
| 1778236953 | 9.44° C | 78% | 1013.1 hPa | 0 mm | - | 43 W/m² | - |
| 1778236650 | 9.44° C | 78% | 1013 hPa | 0 mm | - | 39 W/m² | - |
| 1778236347 | 9.44° C | 78% | 1013.1 hPa | 0 mm | - | 35 W/m² | - |
| 1778236044 | 9.44° C | 78% | 1013.1 hPa | 0 mm | - | 32 W/m² | - |
| 1778235742 | 9.44° C | 78% | 1012.9 hPa | 0 mm | - | 28 W/m² | - |
| 1778235439 | 9.44° C | 78% | 1012.9 hPa | 0 mm | - | 22 W/m² | - |
| 1778235137 | 9.44° C | 78% | 1012.6 hPa | 0 mm | - | 16 W/m² | - |
| 1778234834 | 9.44° C | 78% | 1012.9 hPa | 0 mm | - | 11 W/m² | - |
| 1778234532 | 9.44° C | 78% | 1013 hPa | 0 mm | - | 6 W/m² | - |
| 1778234228 | 9.44° C | 78% | 1012.8 hPa | 0 mm | - | 3 W/m² | - |
| 1778233926 | 9.44° C | 78% | 1012.3 hPa | 0 mm | - | 0 W/m² | - |
| 1778233622 | 9.44° C | 78% | 1012.7 hPa | 0 mm | - | 0 W/m² | - |
| 1778233319 | 8.89° C | 77% | 1012.6 hPa | 0 mm | - | 0 W/m² | - |
| 1778233016 | 8.89° C | 77% | 1012.6 hPa | 0 mm | - | 0 W/m² | - |
| 1778232714 | 8.89° C | 77% | 1012.5 hPa | 0 mm | - | 0 W/m² | - |
| 1778232411 | 8.89° C | 77% | 1012.5 hPa | 0 mm | - | 0 W/m² | - |
| 1778232109 | 9.44° C | 77% | 1012.4 hPa | 0 mm | - | 0 W/m² | - |
| 1778231806 | 9.44° C | 77% | 1012.6 hPa | 0 mm | - | 0 W/m² | - |
| 1778231503 | 9.44° C | 77% | 1012.4 hPa | 0 mm | - | 0 W/m² | - |
| 1778231201 | 9.44° C | 77% | 1012.4 hPa | 0 mm | - | 0 W/m² | - |
| 1778230898 | 9.44° C | 77% | 1012.4 hPa | 0 mm | - | 0 W/m² | - |
* Rain latest hour (hover to see other rain measurements)
** Current wind speed in m/s (hover to see current wind gust speed)